Time,TemperatureF,DewpointF,PressureIn,WindDirection,WindDirectionDegrees,WindSpeedMPH,WindSpeedGustMPH,Humidity,HourlyPrecipIn,Conditions,Clouds,dailyrainin,SoftwareType,DateUTC
2013-06-09 00:02:00,66.0,58.2,29.89,North,-999,-999.0,-999.0,76,0.00,,,0.37,wxRedirect v1.1,2013-06-09 05:02:00,
2013-06-09 00:07:00,66.0,58.6,29.89,ENE,67,0.0,6.9,77,0.00,,,0.37,wxRedirect v1.1,2013-06-09 05:07:00,
2013-06-09 00:13:00,65.8,58.4,29.89,ESE,112,0.0,4.0,77,0.00,,,0.37,wxRedirect v1.1,2013-06-09 05:13:00,
2013-06-09 00:18:00,65.7,58.2,29.89,North,-999,-999.0,-999.0,77,0.00,,,0.37,wxRedirect v1.1,2013-06-09 05:18:00,
2013-06-09 00:23:00,65.5,58.1,29.88,ESE,112,0.0,0.0,77,0.00,,,0.37,wxRedirect v1.1,2013-06-09 05:23:00,
2013-06-09 00:28:00,65.5,58.4,29.87,East,90,0.0,0.0,78,0.00,,,0.37,wxRedirect v1.1,2013-06-09 05:28:00,
2013-06-09 00:34:00,65.3,58.3,29.87,East,90,0.0,0.0,78,0.00,,,0.37,wxRedirect v1.1,2013-06-09 05:34:00,
2013-06-09 00:39:00,65.1,58.1,29.88,ESE,112,0.0,0.0,78,0.00,,,0.37,wxRedirect v1.1,2013-06-09 05:39:00,
2013-06-09 00:44:00,65.3,58.3,29.88,North,-999,-999.0,-999.0,78,0.00,,,0.37,wxRedirect v1.1,2013-06-09 05:44:00,
2013-06-09 00:50:00,65.3,58.3,29.89,ENE,67,0.0,0.0,78,0.00,,,0.37,wxRedirect v1.1,2013-06-09 05:50:00,
2013-06-09 00:55:00,65.3,58.3,29.89,North,-999,-999.0,-999.0,82,0.00,,,0.37,wxRedirect v1.1,2013-06-09 05:55:00,
2013-06-09 01:02:00,65.5,58.4,29.89,ENE,67,0.0,0.0,78,0.00,,,0.37,wxRedirect v1.1,2013-06-09 06:02:00,
2013-06-09 01:08:00,65.5,58.4,29.88,ENE,67,0.0,0.0,82,0.00,,,0.37,wxRedirect v1.1,2013-06-09 06:08:00,
2013-06-09 01:13:00,65.5,58.4,29.88,ENE,67,0.0,0.0,78,0.00,,,0.37,wxRedirect v1.1,2013-06-09 06:13:00,
2013-06-09 01:18:00,65.5,58.4,29.88,ENE,67,0.0,0.0,78,0.00,,,0.37,wxRedirect v1.1,2013-06-09 06:18:00,
2013-06-09 01:23:00,65.5,58.4,29.88,ENE,67,0.0,0.0,78,0.00,,,0.37,wxRedirect v1.1,2013-06-09 06:23:00,
2013-06-09 01:29:00,65.5,58.4,29.88,ENE,67,0.0,0.0,78,0.00,,,0.37,wxRedirect v1.1,2013-06-09 06:29:00,
2013-06-09 01:34:00,65.5,58.4,29.88,North,-999,-999.0,-999.0,78,0.00,,,0.37,wxRedirect v1.1,2013-06-09 06:34:00,
2013-06-09 01:40:00,65.3,58.3,29.88,North,-999,-999.0,-999.0,82,0.00,,,0.37,wxRedirect v1.1,2013-06-09 06:40:00,
2013-06-09 01:45:00,65.3,58.3,29.88,ENE,67,0.0,0.0,78,0.00,,,0.37,wxRedirect v1.1,2013-06-09 06:45:00,
2013-06-09 01:50:00,65.3,58.3,29.88,ENE,67,0.0,0.0,82,0.00,,,0.37,wxRedirect v1.1,2013-06-09 06:50:00,
2013-06-09 01:56:00,65.1,58.1,29.88,ENE,67,0.0,0.0,78,0.00,,,0.37,wxRedirect v1.1,2013-06-09 06:56:00,
2013-06-09 02:02:00,65.1,58.1,29.88,ENE,67,0.0,0.0,82,0.00,,,0.37,wxRedirect v1.1,2013-06-09 07:02:00,
2013-06-09 02:08:00,65.1,58.4,29.88,North,-999,-999.0,-999.0,79,0.00,,,0.37,wxRedirect v1.1,2013-06-09 07:08:00,
2013-06-09 02:13:00,65.1,58.4,29.88,ENE,67,0.0,0.0,83,0.00,,,0.37,wxRedirect v1.1,2013-06-09 07:13:00,
2013-06-09 02:18:00,64.9,58.3,29.88,ENE,67,0.0,0.0,79,0.00,,,0.37,wxRedirect v1.1,2013-06-09 07:18:00,
2013-06-09 02:23:00,64.9,58.3,29.88,North,-999,-999.0,-999.0,79,0.00,,,0.37,wxRedirect v1.1,2013-06-09 07:23:00,
2013-06-09 02:28:00,64.9,58.3,29.88,ENE,67,0.0,0.0,79,0.00,,,0.37,wxRedirect v1.1,2013-06-09 07:28:00,
2013-06-09 02:34:00,64.8,58.1,29.87,North,-999,-999.0,-999.0,83,0.00,,,0.37,wxRedirect v1.1,2013-06-09 07:34:00,
2013-06-09 02:39:00,64.8,58.1,29.87,ENE,67,0.0,0.0,79,0.00,,,0.37,wxRedirect v1.1,2013-06-09 07:39:00,
2013-06-09 02:44:00,64.8,58.1,29.87,ENE,67,0.0,0.0,79,0.00,,,0.37,wxRedirect v1.1,2013-06-09 07:44:00,
2013-06-09 02:50:00,64.6,57.9,29.86,ENE,67,0.0,0.0,79,0.00,,,0.37,wxRedirect v1.1,2013-06-09 07:50:00,
2013-06-09 02:55:00,64.6,57.9,29.87,ENE,67,0.0,0.0,79,0.00,,,0.37,wxRedirect v1.1,2013-06-09 07:55:00,
2013-06-09 03:10:00,64.6,57.9,29.86,ENE,67,0.0,0.0,79,0.00,,,0.37,wxRedirect v1.1,2013-06-09 08:10:00,
2013-06-09 03:15:00,64.4,57.7,29.87,ENE,67,0.0,0.0,83,0.00,,,0.37,wxRedirect v1.1,2013-06-09 08:15:00,
2013-06-09 03:20:00,64.2,57.6,29.86,North,-999,-999.0,-999.0,79,0.00,,,0.37,wxRedirect v1.1,2013-06-09 08:20:00,
2013-06-09 03:26:00,64.2,57.6,29.87,North,-999,-999.0,-999.0,79,0.00,,,0.37,wxRedirect v1.1,2013-06-09 08:26:00,
2013-06-09 03:31:00,64.2,57.6,29.86,North,-999,-999.0,-999.0,79,0.00,,,0.37,wxRedirect v1.1,2013-06-09 08:31:00,
2013-06-09 03:37:00,64.2,57.6,29.86,ENE,67,0.0,0.0,79,0.00,,,0.37,wxRedirect v1.1,2013-06-09 08:37:00,
2013-06-09 03:42:00,64.0,57.4,29.86,North,-999,-999.0,-999.0,79,0.00,,,0.37,wxRedirect v1.1,2013-06-09 08:42:00,
2013-06-09 03:47:00,64.0,57.4,29.86,ENE,67,0.0,0.0,79,0.00,,,0.37,wxRedirect v1.1,2013-06-09 08:47:00,
2013-06-09 03:53:00,64.0,57.4,29.86,ENE,67,0.0,0.0,83,0.00,,,0.37,wxRedirect v1.1,2013-06-09 08:53:00,
2013-06-09 03:58:00,63.9,57.6,29.86,North,-999,-999.0,-999.0,80,0.00,,,0.37,wxRedirect v1.1,2013-06-09 08:58:00,
2013-06-09 04:03:00,63.7,57.4,29.86,ENE,67,0.0,0.0,80,0.00,,,0.37,wxRedirect v1.1,2013-06-09 09:03:00,
2013-06-09 04:09:00,63.7,57.4,29.86,North,-999,-999.0,-999.0,80,0.00,,,0.37,wxRedirect v1.1,2013-06-09 09:09:00,
2013-06-09 04:14:00,63.7,57.4,29.87,North,-999,-999.0,-999.0,80,0.00,,,0.37,wxRedirect v1.1,2013-06-09 09:14:00,
2013-06-09 04:19:00,63.5,57.2,29.86,North,-999,-999.0,-999.0,80,0.00,,,0.37,wxRedirect v1.1,2013-06-09 09:19:00,
2013-06-09 04:25:00,63.3,57.0,29.87,ENE,67,0.0,0.0,80,0.00,,,0.37,wxRedirect v1.1,2013-06-09 09:25:00,
2013-06-09 04:30:00,63.3,57.0,29.87,North,-999,-999.0,-999.0,80,0.00,,,0.37,wxRedirect v1.1,2013-06-09 09:30:00,
2013-06-09 04:35:00,63.1,56.8,29.88,ENE,67,0.0,0.0,84,0.00,,,0.37,wxRedirect v1.1,2013-06-09 09:35:00,
2013-06-09 04:41:00,63.1,56.8,29.88,ENE,67,0.0,0.0,80,0.00,,,0.37,wxRedirect v1.1,2013-06-09 09:41:00,
2013-06-09 04:47:00,63.1,56.8,29.88,ENE,67,0.0,0.0,80,0.00,,,0.37,wxRedirect v1.1,2013-06-09 09:47:00,
2013-06-09 04:52:00,63.1,56.8,29.88,ENE,67,0.0,0.0,84,0.00,,,0.37,wxRedirect v1.1,2013-06-09 09:52:00,
2013-06-09 04:57:00,63.0,56.7,29.88,ENE,67,0.0,0.0,84,0.00,,,0.37,wxRedirect v1.1,2013-06-09 09:57:00,
2013-06-09 05:03:00,63.0,56.7,29.88,North,-999,-999.0,-999.0,80,0.00,,,0.37,wxRedirect v1.1,2013-06-09 10:03:00,
2013-06-09 05:08:00,63.0,56.7,29.88,ENE,67,0.0,0.0,80,0.00,,,0.37,wxRedirect v1.1,2013-06-09 10:08:00,
2013-06-09 05:13:00,62.8,56.5,29.88,ENE,67,0.0,0.0,80,0.00,,,0.37,wxRedirect v1.1,2013-06-09 10:13:00,
2013-06-09 05:19:00,62.8,56.5,29.88,ENE,67,0.0,0.0,80,0.00,,,0.37,wxRedirect v1.1,2013-06-09 10:19:00,
2013-06-09 05:24:00,62.8,56.5,29.88,North,-999,-999.0,-999.0,80,0.00,,,0.37,wxRedirect v1.1,2013-06-09 10:24:00,
2013-06-09 05:29:00,62.6,56.3,29.88,ENE,67,0.0,0.0,80,0.00,,,0.37,wxRedirect v1.1,2013-06-09 10:29:00,
2013-06-09 05:35:00,62.4,56.1,29.88,North,-999,-999.0,-999.0,84,0.00,,,0.37,wxRedirect v1.1,2013-06-09 10:35:00,
2013-06-09 05:40:00,62.4,56.1,29.89,North,-999,-999.0,-999.0,80,0.00,,,0.37,wxRedirect v1.1,2013-06-09 10:40:00,
2013-06-09 05:45:00,62.4,56.1,29.89,ENE,67,0.0,0.0,84,0.00,,,0.37,wxRedirect v1.1,2013-06-09 10:45:00,
2013-06-09 05:51:00,62.4,56.1,29.89,ENE,67,0.0,0.0,80,0.00,,,0.37,wxRedirect v1.1,2013-06-09 10:51:00,
2013-06-09 05:56:00,62.2,56.0,29.89,ENE,67,0.0,0.0,84,0.00,,,0.37,wxRedirect v1.1,2013-06-09 10:56:00,
2013-06-09 06:01:00,62.2,58.0,29.89,North,-999,-999.0,-999.0,80,0.00,,,0.37,wxRedirect v1.1,2013-06-09 11:01:00,
2013-06-09 06:07:00,62.2,56.0,29.89,ENE,67,0.0,0.0,80,0.00,,,0.37,wxRedirect v1.1,2013-06-09 11:07:00,
2013-06-09 06:12:00,62.2,56.0,29.89,ENE,67,0.0,0.0,84,0.00,,,0.37,wxRedirect v1.1,2013-06-09 11:12:00,
2013-06-09 06:17:00,62.2,56.0,29.89,ENE,67,0.0,0.0,80,0.00,,,0.37,wxRedirect v1.1,2013-06-09 11:17:00,
2013-06-09 06:23:00,62.2,56.0,29.89,ENE,67,0.0,0.0,80,0.00,,,0.37,wxRedirect v1.1,2013-06-09 11:23:00,
2013-06-09 06:28:00,62.1,55.8,29.89,ENE,67,0.0,0.0,80,0.00,,,0.37,wxRedirect v1.1,2013-06-09 11:28:00,
2013-06-09 06:34:00,62.1,56.1,29.89,North,-999,-999.0,-999.0,81,0.00,,,0.37,wxRedirect v1.1,2013-06-09 11:34:00,
2013-06-09 06:39:00,62.1,56.1,29.90,ENE,67,0.0,0.0,85,0.00,,,0.37,wxRedirect v1.1,2013-06-09 11:39:00,
2013-06-09 06:44:00,62.2,56.3,29.91,ENE,67,0.0,0.0,81,0.00,,,0.37,wxRedirect v1.1,2013-06-09 11:44:00,
2013-06-09 06:50:00,62.2,56.3,29.91,ENE,67,0.0,0.0,81,0.00,,,0.37,wxRedirect v1.1,2013-06-09 11:50:00,
2013-06-09 06:55:00,62.4,56.8,29.92,ENE,67,0.0,0.0,86,0.00,,,0.37,wxRedirect v1.1,2013-06-09 11:55:00,
2013-06-09 07:00:00,62.4,56.8,29.91,NNE,22,0.0,0.0,82,0.00,,,0.37,wxRedirect v1.1,2013-06-09 12:00:00,
2013-06-09 07:05:00,62.4,56.8,29.91,NNE,22,0.0,0.0,86,0.00,,,0.37,wxRedirect v1.1,2013-06-09 12:05:00,
2013-06-09 07:11:00,62.8,57.2,29.91,NNE,22,0.0,0.0,82,0.00,,,0.37,wxRedirect v1.1,2013-06-09 12:11:00,
2013-06-09 07:16:00,62.8,56.8,29.91,North,-999,-999.0,-999.0,81,0.00,,,0.37,wxRedirect v1.1,2013-06-09 12:16:00,
2013-06-09 07:22:00,63.0,57.0,29.91,NNE,22,0.0,0.0,81,0.00,,,0.37,wxRedirect v1.1,2013-06-09 12:22:00,
2013-06-09 07:27:00,63.1,57.2,29.91,NNE,22,0.0,0.0,81,0.00,,,0.37,wxRedirect v1.1,2013-06-09 12:27:00,
2013-06-09 07:32:00,63.3,57.4,29.91,NNE,22,0.0,0.0,81,0.00,,,0.37,wxRedirect v1.1,2013-06-09 12:32:00,
2013-06-09 07:38:00,63.5,57.2,29.91,North,-999,-999.0,-999.0,80,0.00,,,0.37,wxRedirect v1.1,2013-06-09 12:38:00,
2013-06-09 07:43:00,63.7,57.4,29.92,NNE,22,0.0,0.0,80,0.00,,,0.37,wxRedirect v1.1,2013-06-09 12:43:00,
2013-06-09 07:48:00,63.9,57.6,29.92,North,-999,-999.0,-999.0,80,0.00,,,0.37,wxRedirect v1.1,2013-06-09 12:48:00,
2013-06-09 07:54:00,64.0,57.7,29.92,NNE,22,0.0,0.0,80,0.00,,,0.37,wxRedirect v1.1,2013-06-09 12:54:00,
2013-06-09 07:59:00,64.0,57.7,29.91,NNE,22,0.0,0.0,84,0.00,,,0.37,wxRedirect v1.1,2013-06-09 12:59:00,
2013-06-09 08:04:00,64.2,57.9,29.91,North,0,0.0,0.0,80,0.00,,,0.37,wxRedirect v1.1,2013-06-09 13:04:00,
2013-06-09 08:10:00,64.2,57.6,29.91,North,0,0.0,0.0,83,0.00,,,0.37,wxRedirect v1.1,2013-06-09 13:10:00,
2013-06-09 08:15:00,64.6,57.9,29.92,North,0,0.0,0.0,79,0.00,,,0.37,wxRedirect v1.1,2013-06-09 13:15:00,
2013-06-09 08:20:00,64.8,58.1,29.92,North,0,0.0,0.0,79,0.00,,,0.37,wxRedirect v1.1,2013-06-09 13:20:00,
2013-06-09 08:26:00,64.9,58.3,29.92,North,0,0.0,0.0,79,0.00,,,0.37,wxRedirect v1.1,2013-06-09 13:26:00,
2013-06-09 08:31:00,65.1,58.4,29.91,North,-999,-999.0,-999.0,83,0.00,,,0.37,wxRedirect v1.1,2013-06-09 13:31:00,
2013-06-09 08:36:00,65.5,58.8,29.91,North,0,0.0,0.0,79,0.00,,,0.37,wxRedirect v1.1,2013-06-09 13:36:00,
2013-06-09 08:42:00,65.8,58.8,29.91,North,-999,-999.0,-999.0,78,0.00,,,0.37,wxRedirect v1.1,2013-06-09 13:42:00,
2013-06-09 08:47:00,66.0,59.0,29.92,WNW,292,0.0,0.0,78,0.00,,,0.37,wxRedirect v1.1,2013-06-09 13:47:00,
2013-06-09 08:52:00,66.7,59.3,29.92,NW,315,0.0,0.0,77,0.00,,,0.37,wxRedirect v1.1,2013-06-09 13:52:00,
2013-06-09 08:58:00,67.3,59.8,29.92,NNW,337,0.0,0.0,77,0.00,,,0.37,wxRedirect v1.1,2013-06-09 13:58:00,
2013-06-09 09:03:00,67.8,60.0,29.92,NNW,337,0.0,0.0,76,0.00,,,0.37,wxRedirect v1.1,2013-06-09 14:03:00,
2013-06-09 09:08:00,68.7,59.7,29.92,North,-999,-999.0,-999.0,73,0.00,,,0.37,wxRedirect v1.1,2013-06-09 14:08:00,
2013-06-09 09:14:00,69.4,61.9,29.92,North,0,0.0,0.0,73,0.00,,,0.37,wxRedirect v1.1,2013-06-09 14:14:00,
2013-06-09 09:19:00,70.3,60.8,29.93,North,0,0.0,0.0,76,0.00,,,0.37,wxRedirect v1.1,2013-06-09 14:19:00,
2013-06-09 09:24:00,71.2,61.0,29.93,North,0,0.0,5.4,70,0.00,,,0.37,wxRedirect v1.1,2013-06-09 14:24:00,
2013-06-09 09:30:00,72.0,61.3,29.92,NNW,337,0.0,5.4,73,0.00,,,0.37,wxRedirect v1.1,2013-06-09 14:30:00,
2013-06-09 09:35:00,72.7,62.0,29.92,North,0,0.0,2.7,73,0.00,,,0.37,wxRedirect v1.1,2013-06-09 14:35:00,
2013-06-09 09:40:00,73.6,62.0,29.93,North,-999,-999.0,-999.0,67,0.00,,,0.37,wxRedirect v1.1,2013-06-09 14:40:00,
2013-06-09 09:46:00,74.2,61.6,29.92,North,-999,-999.0,-999.0,65,0.00,,,0.37,wxRedirect v1.1,2013-06-09 14:46:00,
2013-06-09 09:51:00,75.0,62.0,29.93,North,0,0.0,2.7,64,0.00,,,0.37,wxRedirect v1.1,2013-06-09 14:51:00,
2013-06-09 09:56:00,75.7,62.2,29.93,North,0,0.0,2.9,67,0.00,,,0.37,wxRedirect v1.1,2013-06-09 14:56:00,
2013-06-09 10:02:00,76.3,62.3,29.93,North,-999,-999.0,-999.0,66,0.00,,,0.37,wxRedirect v1.1,2013-06-09 15:02:00,
2013-06-09 10:07:00,76.8,61.9,29.93,North,-999,-999.0,-999.0,60,0.00,,,0.37,wxRedirect v1.1,2013-06-09 15:07:00,
2013-06-09 10:12:00,77.4,61.9,29.92,NNW,337,0.0,4.3,59,0.00,,,0.37,wxRedirect v1.1,2013-06-09 15:12:00,
2013-06-09 10:18:00,77.9,62.4,29.93,North,0,6.9,6.9,59,0.00,,,0.37,wxRedirect v1.1,2013-06-09 15:18:00,
2013-06-09 10:23:00,78.4,61.9,29.93,North,0,4.0,6.9,57,0.00,,,0.37,wxRedirect v1.1,2013-06-09 15:23:00,
2013-06-09 10:28:00,79.0,63.0,29.93,North,0,0.0,5.4,58,0.00,,,0.37,wxRedirect v1.1,2013-06-09 15:28:00,
2013-06-09 10:34:00,79.5,64.0,29.92,North,0,0.0,0.0,63,0.00,,,0.37,wxRedirect v1.1,2013-06-09 15:34:00,
2013-06-09 10:39:00,80.2,64.1,29.93,NNW,337,0.0,0.0,58,0.00,,,0.37,wxRedirect v1.1,2013-06-09 15:39:00,
2013-06-09 10:44:00,80.8,64.6,29.92,North,-999,-999.0,-999.0,58,0.00,,,0.37,wxRedirect v1.1,2013-06-09 15:44:00,
2013-06-09 10:50:00,81.1,64.4,29.93,North,-999,-999.0,-999.0,57,0.00,,,0.37,wxRedirect v1.1,2013-06-09 15:50:00,
2013-06-09 10:55:00,81.3,63.5,29.92,NW,315,0.0,0.0,55,0.00,,,0.37,wxRedirect v1.1,2013-06-09 15:55:00,
2013-06-09 11:00:00,81.7,63.3,29.92,North,-999,-999.0,-999.0,54,0.00,,,0.37,wxRedirect v1.1,2013-06-09 16:00:00,
2013-06-09 11:06:00,82.0,63.6,29.92,WNW,292,0.0,0.0,54,0.00,,,0.37,wxRedirect v1.1,2013-06-09 16:06:00,
2013-06-09 11:11:00,82.2,63.8,29.93,West,270,0.0,0.0,54,0.00,,,0.37,wxRedirect v1.1,2013-06-09 16:11:00,
2013-06-09 11:17:00,82.6,63.6,29.92,West,270,0.0,0.0,53,0.00,,,0.37,wxRedirect v1.1,2013-06-09 16:17:00,
2013-06-09 11:22:00,82.9,63.5,29.92,West,270,0.0,0.0,52,0.00,,,0.37,wxRedirect v1.1,2013-06-09 16:22:00,
2013-06-09 11:27:00,83.1,62.6,29.92,NNE,22,0.0,0.0,54,0.00,,,0.37,wxRedirect v1.1,2013-06-09 16:27:00,
2013-06-09 11:32:00,83.3,62.2,29.93,NNE,22,0.0,5.1,49,0.00,,,0.37,wxRedirect v1.1,2013-06-09 16:32:00,
2013-06-09 11:38:00,83.5,63.0,29.93,NNE,22,0.0,5.1,50,0.00,,,0.37,wxRedirect v1.1,2013-06-09 16:38:00,
2013-06-09 11:43:00,83.8,62.1,29.93,North,-999,-999.0,-999.0,48,0.00,,,0.37,wxRedirect v1.1,2013-06-09 16:43:00,
2013-06-09 11:48:00,84.0,62.2,29.92,North,0,0.0,7.6,48,0.00,,,0.37,wxRedirect v1.1,2013-06-09 16:48:00,
2013-06-09 11:54:00,84.2,63.1,29.92,North,-999,-999.0,-999.0,49,0.00,,,0.37,wxRedirect v1.1,2013-06-09 16:54:00,
2013-06-09 11:59:00,84.4,62.6,29.92,West,270,0.0,0.0,48,0.00,,,0.37,wxRedirect v1.1,2013-06-09 16:59:00,
2013-06-09 12:04:00,84.6,62.8,29.92,North,0,0.0,0.0,48,0.00,,,0.37,wxRedirect v1.1,2013-06-09 17:04:00,
2013-06-09 12:09:00,84.7,62.3,29.92,North,-999,-999.0,-999.0,47,0.00,,,0.37,wxRedirect v1.1,2013-06-09 17:09:00,
2013-06-09 12:15:00,84.9,61.8,29.92,North,-999,-999.0,-999.0,46,0.00,,,0.37,wxRedirect v1.1,2013-06-09 17:15:00,
2013-06-09 12:20:00,85.1,62.0,29.92,NNW,337,1.6,1.6,46,0.00,,,0.37,wxRedirect v1.1,2013-06-09 17:20:00,
2013-06-09 12:25:00,85.1,62.0,29.92,NNW,337,0.0,1.6,46,0.00,,,0.37,wxRedirect v1.1,2013-06-09 17:25:00,
2013-06-09 12:31:00,85.3,61.5,29.92,North,0,0.0,0.0,45,0.00,,,0.37,wxRedirect v1.1,2013-06-09 17:31:00,
2013-06-09 12:36:00,85.6,62.5,29.92,North,-999,-999.0,-999.0,46,0.00,,,0.37,wxRedirect v1.1,2013-06-09 17:36:00,
2013-06-09 12:41:00,85.8,62.0,29.92,North,-999,-999.0,-999.0,45,0.00,,,0.37,wxRedirect v1.1,2013-06-09 17:41:00,
2013-06-09 12:47:00,86.2,62.3,29.92,North,-999,-999.0,-999.0,45,0.00,,,0.37,wxRedirect v1.1,2013-06-09 17:47:00,
2013-06-09 12:52:00,86.2,62.3,29.91,South,180,0.0,0.0,45,0.00,,,0.37,wxRedirect v1.1,2013-06-09 17:52:00,
2013-06-09 12:58:00,86.4,62.5,29.91,South,180,0.0,0.0,45,0.00,,,0.37,wxRedirect v1.1,2013-06-09 17:58:00,
2013-06-09 13:03:00,86.5,62.6,29.91,NW,315,0.0,1.1,45,0.00,,,0.37,wxRedirect v1.1,2013-06-09 18:03:00,
2013-06-09 13:08:00,86.7,62.8,29.91,WSW,247,0.0,0.0,45,0.00,,,0.37,wxRedirect v1.1,2013-06-09 18:08:00,
2013-06-09 13:14:00,86.7,62.2,29.91,North,-999,-999.0,-999.0,44,0.00,,,0.37,wxRedirect v1.1,2013-06-09 18:14:00,
2013-06-09 13:19:00,87.1,61.9,29.91,North,0,0.0,2.9,47,0.00,,,0.37,wxRedirect v1.1,2013-06-09 18:19:00,
2013-06-09 13:24:00,87.1,62.5,29.91,WSW,247,0.0,0.0,44,0.00,,,0.37,wxRedirect v1.1,2013-06-09 18:24:00,
2013-06-09 13:30:00,87.3,64.5,29.91,WSW,247,0.7,3.1,47,0.00,,,0.37,wxRedirect v1.1,2013-06-09 18:30:00,
2013-06-09 13:35:00,87.4,64.1,29.91,NW,315,0.0,3.1,46,0.00,,,0.37,wxRedirect v1.1,2013-06-09 18:35:00,
2013-06-09 13:40:00,87.4,61.6,29.91,North,-999,-999.0,-999.0,42,0.00,,,0.37,wxRedirect v1.1,2013-06-09 18:40:00,
2013-06-09 13:46:00,87.4,61.6,29.91,West,270,0.0,0.0,42,0.00,,,0.37,wxRedirect v1.1,2013-06-09 18:46:00,
2013-06-09 13:51:00,87.6,62.3,29.91,WSW,247,0.0,5.6,43,0.00,,,0.37,wxRedirect v1.1,2013-06-09 18:51:00,
2013-06-09 13:56:00,87.8,62.5,29.91,WSW,247,2.2,6.5,47,0.00,,,0.37,wxRedirect v1.1,2013-06-09 18:56:00,
2013-06-09 14:01:00,88.0,62.7,29.91,West,270,0.0,4.9,43,0.00,,,0.37,wxRedirect v1.1,2013-06-09 19:01:00,
2013-06-09 14:07:00,88.2,62.2,29.91,West,270,0.0,2.9,42,0.00,,,0.37,wxRedirect v1.1,2013-06-09 19:07:00,
2013-06-09 14:12:00,88.2,62.2,29.91,West,270,0.0,4.7,42,0.00,,,0.37,wxRedirect v1.1,2013-06-09 19:12:00,
2013-06-09 14:17:00,88.3,62.3,29.90,NW,315,0.0,4.7,42,0.00,,,0.37,wxRedirect v1.1,2013-06-09 19:17:00,
2013-06-09 14:22:00,88.3,62.3,29.90,WSW,247,0.0,3.4,42,0.00,,,0.37,wxRedirect v1.1,2013-06-09 19:22:00,
2013-06-09 14:28:00,88.3,64.9,29.90,North,-999,-999.0,-999.0,46,0.00,,,0.37,wxRedirect v1.1,2013-06-09 19:28:00,
2013-06-09 14:33:00,88.3,62.3,29.89,WSW,247,0.0,8.1,42,0.00,,,0.37,wxRedirect v1.1,2013-06-09 19:33:00,
2013-06-09 14:39:00,88.5,63.1,29.89,WNW,292,0.0,0.0,43,0.00,,,0.37,wxRedirect v1.1,2013-06-09 19:39:00,
2013-06-09 14:44:00,88.7,63.2,29.89,WSW,247,0.0,0.2,43,0.00,,,0.37,wxRedirect v1.1,2013-06-09 19:44:00,
2013-06-09 14:49:00,88.9,62.8,29.88,NW,315,0.0,2.7,42,0.00,,,0.37,wxRedirect v1.1,2013-06-09 19:49:00,
2013-06-09 14:55:00,88.9,62.8,29.88,WSW,247,0.0,2.7,42,0.00,,,0.37,wxRedirect v1.1,2013-06-09 19:55:00,
2013-06-09 15:00:00,88.9,62.1,29.89,WSW,247,13.2,13.2,41,0.00,,,0.37,wxRedirect v1.1,2013-06-09 20:00:00,
2013-06-09 15:05:00,88.9,62.1,29.88,WSW,247,0.0,13.2,41,0.00,,,0.37,wxRedirect v1.1,2013-06-09 20:05:00,
2013-06-09 15:11:00,88.9,62.1,29.88,WSW,247,0.0,3.6,41,0.00,,,0.37,wxRedirect v1.1,2013-06-09 20:11:00,
2013-06-09 15:16:00,88.9,62.1,29.88,North,-999,-999.0,-999.0,41,0.00,,,0.37,wxRedirect v1.1,2013-06-09 20:16:00,
2013-06-09 15:21:00,89.1,65.5,29.88,WNW,292,0.0,5.4,46,0.00,,,0.37,wxRedirect v1.1,2013-06-09 20:21:00,
2013-06-09 15:27:00,89.2,63.1,29.88,WSW,247,2.7,5.4,42,0.00,,,0.37,wxRedirect v1.1,2013-06-09 20:27:00,
2013-06-09 15:32:00,89.2,61.8,29.88,NNW,337,2.2,5.4,44,0.00,,,0.37,wxRedirect v1.1,2013-06-09 20:32:00,
2013-06-09 15:37:00,89.1,61.6,29.86,WSW,247,0.7,7.2,40,0.00,,,0.37,wxRedirect v1.1,2013-06-09 20:37:00,
2013-06-09 15:43:00,88.9,62.1,29.86,North,-999,-999.0,-999.0,41,0.00,,,0.37,wxRedirect v1.1,2013-06-09 20:43:00,
2013-06-09 15:48:00,88.9,62.1,29.87,WSW,247,0.0,6.0,41,0.00,,,0.37,wxRedirect v1.1,2013-06-09 20:48:00,
2013-06-09 15:53:00,89.2,62.4,29.87,WSW,247,0.0,6.0,41,0.00,,,0.37,wxRedirect v1.1,2013-06-09 20:53:00,
2013-06-09 15:59:00,89.2,62.4,29.86,North,-999,-999.0,-999.0,45,0.00,,,0.37,wxRedirect v1.1,2013-06-09 20:59:00,
2013-06-09 16:04:00,89.4,62.5,29.86,WNW,292,0.0,7.4,41,0.00,,,0.37,wxRedirect v1.1,2013-06-09 21:04:00,
2013-06-09 16:09:00,89.4,62.5,29.86,North,-999,-999.0,-999.0,45,0.00,,,0.37,wxRedirect v1.1,2013-06-09 21:09:00,
2013-06-09 16:14:00,89.4,62.5,29.86,SW,225,3.6,3.6,41,0.00,,,0.37,wxRedirect v1.1,2013-06-09 21:14:00,
2013-06-09 16:20:00,89.4,62.5,29.86,WNW,292,0.0,3.6,41,0.00,,,0.37,wxRedirect v1.1,2013-06-09 21:20:00,
2013-06-09 16:25:00,89.4,62.5,29.85,North,-999,-999.0,-999.0,45,0.00,,,0.37,wxRedirect v1.1,2013-06-09 21:25:00,
2013-06-09 16:30:00,89.4,63.2,29.85,North,-999,-999.0,-999.0,42,0.00,,,0.37,wxRedirect v1.1,2013-06-09 21:30:00,
2013-06-09 16:36:00,89.4,63.2,29.85,WSW,247,0.0,8.7,42,0.00,,,0.37,wxRedirect v1.1,2013-06-09 21:36:00,
2013-06-09 16:41:00,89.4,62.5,29.85,West,270,0.0,4.0,41,0.00,,,0.37,wxRedirect v1.1,2013-06-09 21:41:00,
2013-06-09 16:46:00,88.9,62.1,29.85,North,-999,-999.0,-999.0,41,0.00,,,0.37,wxRedirect v1.1,2013-06-09 21:46:00,
2013-06-09 16:52:00,88.9,62.1,29.85,NW,315,0.0,0.0,41,0.00,,,0.37,wxRedirect v1.1,2013-06-09 21:52:00,
2013-06-09 16:57:00,89.1,62.9,29.83,North,-999,-999.0,-999.0,46,0.00,,,0.37,wxRedirect v1.1,2013-06-09 21:57:00,
2013-06-09 17:02:00,89.2,63.1,29.84,North,-999,-999.0,-999.0,42,0.00,,,0.37,wxRedirect v1.1,2013-06-09 22:02:00,
2013-06-09 17:07:00,89.2,63.2,29.83,WSW,247,0.0,3.4,42,0.00,,,0.37,wxRedirect v1.1,2013-06-09 22:07:00,
2013-06-09 17:12:00,89.4,63.2,29.84,North,-999,-999.0,-999.0,42,0.00,,,0.37,wxRedirect v1.1,2013-06-09 22:12:00,
2013-06-09 17:17:00,89.4,62.5,29.83,West,270,0.0,5.1,41,0.00,,,0.37,wxRedirect v1.1,2013-06-09 22:17:00,
2013-06-09 17:23:00,89.2,62.4,29.84,North,-999,-999.0,-999.0,41,0.00,,,0.37,wxRedirect v1.1,2013-06-09 22:23:00,
2013-06-09 17:28:00,89.2,62.4,29.83,NW,315,0.0,3.6,41,0.00,,,0.37,wxRedirect v1.1,2013-06-09 22:28:00,
2013-06-09 17:33:00,88.9,62.1,29.83,WSW,247,0.0,0.7,41,0.00,,,0.37,wxRedirect v1.1,2013-06-09 22:33:00,
2013-06-09 17:39:00,88.9,62.1,29.83,North,-999,-999.0,-999.0,45,0.00,,,0.37,wxRedirect v1.1,2013-06-09 22:39:00,
2013-06-09 17:44:00,88.9,62.1,29.84,North,-999,-999.0,-999.0,41,0.00,,,0.37,wxRedirect v1.1,2013-06-09 22:44:00,
2013-06-09 17:49:00,88.9,62.8,29.83,WSW,247,0.0,2.7,42,0.00,,,0.37,wxRedirect v1.1,2013-06-09 22:49:00,
2013-06-09 17:55:00,88.9,62.8,29.83,West,270,9.2,9.2,42,0.00,,,0.37,wxRedirect v1.1,2013-06-09 22:55:00,
2013-06-09 18:00:00,88.7,62.0,29.84,WSW,247,8.5,9.2,41,0.00,,,0.37,wxRedirect v1.1,2013-06-09 23:00:00,
2013-06-09 18:05:00,88.3,61.7,29.83,West,270,0.0,8.5,41,0.00,,,0.37,wxRedirect v1.1,2013-06-09 23:05:00,
2013-06-09 18:10:00,88.3,62.3,29.83,WSW,247,0.0,5.6,42,0.00,,,0.37,wxRedirect v1.1,2013-06-09 23:10:00,
2013-06-09 18:16:00,88.2,62.2,29.84,SW,225,2.0,7.2,42,0.00,,,0.37,wxRedirect v1.1,2013-06-09 23:16:00,
2013-06-09 18:21:00,88.2,62.2,29.83,WSW,247,0.0,7.2,42,0.00,,,0.37,wxRedirect v1.1,2013-06-09 23:21:00,
2013-06-09 18:26:00,88.0,65.2,29.83,North,-999,-999.0,-999.0,43,0.00,,,0.37,wxRedirect v1.1,2013-06-09 23:26:00,
2013-06-09 18:31:00,88.0,62.7,29.83,North,-999,-999.0,-999.0,43,0.00,,,0.37,wxRedirect v1.1,2013-06-09 23:31:00,
2013-06-09 18:37:00,87.8,62.5,29.83,WSW,247,0.0,5.8,43,0.00,,,0.37,wxRedirect v1.1,2013-06-09 23:37:00,
2013-06-09 18:42:00,87.6,62.3,29.83,SW,225,0.0,5.8,43,0.00,,,0.37,wxRedirect v1.1,2013-06-09 23:42:00,
2013-06-09 18:47:00,87.4,62.8,29.83,WSW,247,0.0,4.0,44,0.00,,,0.37,wxRedirect v1.1,2013-06-09 23:47:00,
2013-06-09 18:53:00,87.3,62.7,29.83,West,270,3.1,4.0,44,0.00,,,0.37,wxRedirect v1.1,2013-06-09 23:53:00,
2013-06-09 18:58:00,87.1,62.5,29.83,WSW,247,0.0,4.5,44,0.00,,,0.37,wxRedirect v1.1,2013-06-09 23:58:00,
2013-06-09 19:03:00,86.9,62.3,29.83,North,-999,-999.0,-999.0,44,0.00,,,0.37,wxRedirect v1.1,2013-06-10 00:03:00,
2013-06-09 19:09:00,86.7,62.2,29.84,North,-999,-999.0,-999.0,44,0.00,,,0.37,wxRedirect v1.1,2013-06-10 00:09:00,
2013-06-09 19:14:00,86.7,62.2,29.83,WSW,247,0.0,5.4,44,0.00,,,0.37,wxRedirect v1.1,2013-06-10 00:14:00,
2013-06-09 19:19:00,86.5,62.6,29.83,WSW,247,0.0,5.4,45,0.00,,,0.37,wxRedirect v1.1,2013-06-10 00:19:00,
2013-06-09 19:24:00,86.4,62.5,29.83,North,-999,-999.0,-999.0,45,0.00,,,0.37,wxRedirect v1.1,2013-06-10 00:24:00,
2013-06-09 19:30:00,86.4,62.5,29.84,WSW,247,0.0,0.0,45,0.00,,,0.37,wxRedirect v1.1,2013-06-10 00:30:00,
2013-06-09 19:35:00,86.2,62.9,29.83,WSW,247,0.0,0.0,46,0.00,,,0.37,wxRedirect v1.1,2013-06-10 00:35:00,
2013-06-09 19:40:00,86.2,62.9,29.84,WSW,247,0.0,0.0,46,0.00,,,0.37,wxRedirect v1.1,2013-06-10 00:40:00,
2013-06-09 19:46:00,85.8,62.6,29.85,North,-999,-999.0,-999.0,46,0.00,,,0.37,wxRedirect v1.1,2013-06-10 00:46:00,
2013-06-09 19:51:00,85.8,62.6,29.83,WSW,247,0.0,0.0,46,0.00,,,0.37,wxRedirect v1.1,2013-06-10 00:51:00,
2013-06-09 19:57:00,85.8,63.2,29.83,North,-999,-999.0,-999.0,47,0.00,,,0.37,wxRedirect v1.1,2013-06-10 00:57:00,
2013-06-09 20:02:00,85.6,63.7,29.84,WSW,247,0.0,0.0,48,0.00,,,0.08,wxRedirect v1.1,2013-06-10 01:02:00,
2013-06-09 20:07:00,85.3,64.0,29.84,North,-999,-999.0,-999.0,49,0.00,,,0.08,wxRedirect v1.1,2013-06-10 01:07:00,
2013-06-09 20:12:00,84.9,63.7,29.84,WSW,247,0.0,0.0,49,0.00,,,0.08,wxRedirect v1.1,2013-06-10 01:12:00,
2013-06-09 20:17:00,84.7,64.2,29.84,North,-999,-999.0,-999.0,50,0.00,,,0.08,wxRedirect v1.1,2013-06-10 01:17:00,
2013-06-09 20:23:00,84.6,64.0,29.83,North,-999,-999.0,-999.0,54,0.00,,,0.08,wxRedirect v1.1,2013-06-10 01:23:00,
2013-06-09 20:28:00,84.4,64.4,29.83,WSW,247,0.0,0.0,51,0.00,,,0.08,wxRedirect v1.1,2013-06-10 01:28:00,
2013-06-09 20:33:00,84.0,64.0,29.84,WSW,247,0.0,0.0,51,0.00,,,0.08,wxRedirect v1.1,2013-06-10 01:33:00,
2013-06-09 20:39:00,84.0,64.0,29.84,WSW,247,0.0,0.0,51,0.00,,,0.08,wxRedirect v1.1,2013-06-10 01:39:00,
2013-06-09 20:44:00,83.7,63.7,29.84,WSW,247,0.0,0.0,51,0.00,,,0.08,wxRedirect v1.1,2013-06-10 01:44:00,
2013-06-09 20:49:00,83.5,64.0,29.85,WSW,247,0.0,0.0,56,0.00,,,0.08,wxRedirect v1.1,2013-06-10 01:49:00,
2013-06-09 20:55:00,83.1,63.8,29.84,WSW,247,0.0,0.0,52,0.00,,,0.08,wxRedirect v1.1,2013-06-10 01:55:00,
2013-06-09 21:00:00,82.9,63.5,29.85,WSW,247,0.0,0.0,52,-99.99,,,0.00,wxRedirect v1.1,2013-06-10 02:00:00,
2013-06-09 21:05:00,82.8,63.3,29.85,WSW,247,0.0,0.0,52,-99.99,,,0.00,wxRedirect v1.1,2013-06-10 02:05:00,
2013-06-09 21:11:00,82.6,63.1,29.85,WSW,247,0.0,0.0,56,-99.99,,,0.00,wxRedirect v1.1,2013-06-10 02:11:00,
2013-06-09 21:16:00,82.2,62.8,29.85,WSW,247,0.0,0.0,52,-99.99,,,0.00,wxRedirect v1.1,2013-06-10 02:16:00,
2013-06-09 21:22:00,82.0,63.1,29.85,North,-999,-999.0,-999.0,57,-99.99,,,0.00,wxRedirect v1.1,2013-06-10 02:22:00,
2013-06-09 21:27:00,81.7,62.8,29.85,WSW,247,0.0,0.0,57,-99.99,,,0.00,wxRedirect v1.1,2013-06-10 02:27:00,
2013-06-09 21:32:00,81.5,62.6,29.85,North,-999,-999.0,-999.0,53,-99.99,,,0.00,wxRedirect v1.1,2013-06-10 02:32:00,
2013-06-09 21:37:00,81.1,62.8,29.86,WSW,247,0.0,0.0,54,-99.99,,,0.00,wxRedirect v1.1,2013-06-10 02:37:00,
2013-06-09 21:43:00,81.0,63.2,29.86,WSW,247,0.0,0.0,55,-99.99,,,0.00,wxRedirect v1.1,2013-06-10 02:43:00,
2013-06-09 21:48:00,80.6,62.9,29.86,NW,315,0.0,0.0,55,-99.99,,,0.00,wxRedirect v1.1,2013-06-10 02:48:00,
2013-06-09 21:54:00,80.4,63.2,29.87,North,-999,-999.0,-999.0,56,-99.99,,,0.00,wxRedirect v1.1,2013-06-10 02:54:00,
2013-06-09 21:59:00,80.2,63.1,29.86,NNE,22,0.0,0.0,56,-99.99,,,0.00,wxRedirect v1.1,2013-06-10 02:59:00,
2013-06-09 22:04:00,80.1,62.9,29.87,NNE,22,0.0,0.0,56,-99.99,,,0.00,wxRedirect v1.1,2013-06-10 03:04:00,
2013-06-09 22:10:00,79.9,62.7,29.87,North,-999,-999.0,-999.0,56,-99.99,,,0.00,wxRedirect v1.1,2013-06-10 03:10:00,
2013-06-09 22:15:00,79.5,62.9,29.88,NNE,22,0.0,0.0,57,-99.99,,,0.00,wxRedirect v1.1,2013-06-10 03:15:00,
2013-06-09 22:20:00,79.3,62.8,29.88,North,-999,-999.0,-999.0,57,-99.99,,,0.00,wxRedirect v1.1,2013-06-10 03:20:00,
2013-06-09 22:26:00,79.0,63.0,29.88,NNE,22,0.0,0.0,58,-99.99,,,0.00,wxRedirect v1.1,2013-06-10 03:26:00,
2013-06-09 22:31:00,78.8,62.8,29.88,NNE,22,0.0,0.0,62,-99.99,,,0.00,wxRedirect v1.1,2013-06-10 03:31:00,
2013-06-09 22:36:00,78.6,62.6,29.88,NNE,22,0.0,0.0,58,-99.99,,,0.00,wxRedirect v1.1,2013-06-10 03:36:00,
2013-06-09 22:42:00,78.4,63.0,29.88,NNE,22,0.0,0.0,59,-99.99,,,0.00,wxRedirect v1.1,2013-06-10 03:42:00,
2013-06-09 22:47:00,78.1,62.6,29.88,NNE,22,0.0,3.1,63,-99.99,,,0.00,wxRedirect v1.1,2013-06-10 03:47:00,
2013-06-09 22:52:00,78.1,62.6,29.88,NNE,22,0.0,4.3,59,-99.99,,,0.00,wxRedirect v1.1,2013-06-10 03:52:00,
2013-06-09 22:58:00,77.9,61.9,29.88,NNE,22,2.9,4.3,62,-99.99,,,0.00,wxRedirect v1.1,2013-06-10 03:58:00,
2013-06-09 23:01:00,77.9,61.9,29.88,North,-999,-999.0,-999.0,58,-99.99,,,0.00,wxRedirect v1.1,2013-06-10 04:01:00,
2013-06-09 23:02:00,77.9,61.9,29.88,North,-999,-999.0,-999.0,58,-99.99,,,0.00,wxRedirect v1.1,2013-06-10 04:02:00,
2013-06-09 23:04:00,77.7,61.8,29.88,NNE,22,0.0,2.9,58,-99.99,,,0.00,wxRedirect v1.1,2013-06-10 04:04:00,
2013-06-09 23:10:00,77.7,61.8,29.88,North,-999,-999.0,-999.0,58,-99.99,,,0.00,wxRedirect v1.1,2013-06-10 04:10:00,
2013-06-09 23:12:00,77.5,61.6,29.88,NE,45,0.0,0.0,62,-99.99,,,0.00,wxRedirect v1.1,2013-06-10 04:12:00,
2013-06-09 23:17:00,77.5,61.1,29.88,NE,45,0.0,0.0,57,-99.99,,,0.00,wxRedirect v1.1,2013-06-10 04:17:00,
2013-06-09 23:23:00,77.5,61.1,29.88,NE,45,0.0,0.0,57,-99.99,,,0.00,wxRedirect v1.1,2013-06-10 04:23:00,
2013-06-09 23:28:00,77.4,60.9,29.88,NE,45,0.0,0.0,57,-99.99,,,0.00,wxRedirect v1.1,2013-06-10 04:28:00,
2013-06-09 23:33:00,77.2,60.2,29.88,NE,45,0.0,0.0,56,-99.99,,,0.00,wxRedirect v1.1,2013-06-10 04:33:00,
2013-06-09 23:39:00,76.8,60.4,29.88,NE,45,0.0,0.0,57,-99.99,,,0.00,wxRedirect v1.1,2013-06-10 04:39:00,
2013-06-09 23:44:00,76.6,60.2,29.88,NE,45,0.0,0.0,57,-99.99,,,0.00,wxRedirect v1.1,2013-06-10 04:44:00,
2013-06-09 23:49:00,76.3,59.9,29.88,NE,45,0.0,0.0,57,-99.99,,,0.00,wxRedirect v1.1,2013-06-10 04:49:00,
2013-06-09 23:55:00,76.1,59.7,29.88,NE,45,0.0,0.0,57,-99.99,,,0.00,wxRedirect v1.1,2013-06-10 04:55:00,